User: anonymous   Login
Location: Unspecified
(0.0000°N, 0.0000°E)
Time: 19:45:06
(UTC+00:00)
Language:

MOZHAYETS 4 - Orbit

View from above orbital plane
View from above orbital plane
View from above satellite
View from above satellite

Ground track
Ground track

The orbit data is extracted from the following two-line orbital elements,

1 27939U 03042A   22222.47165009  .00000571  00000-0  10972-3 0  9996
2 27939  98.1985   3.1989 0013632  42.4334 317.7931 14.67418989  8968
Epoch (UTC): 10 August 2022 11:19:10
Eccentricity: 0.0013632
inclination: 98.1985°
perigee height: 660 km
apogee height: 679 km
right ascension of ascending node: 3.1989°
argument of perigee: 42.4334°
revolutions per day: 14.67418989
mean anomaly at epoch: 317.7931°
orbit number at epoch: 896

The dashed part of the orbit path shows where the satellite is in the earth's shadow,  

DLR